Flag for Russia Weather past 2 weeks in Yuzhno-Sakhalinsk, Russia

Now
46 °F

Clear.


Feels Like: 46 °F
Forecast: 38 / 57 °F
Wind: No wind

Location: Yuzhno Airport-Sakhalinsk

Current Time: Apr 28, 2015 at 8:41:11 AM

Latest Report: Apr 28, 2015 at 8:00 AM


Visibility: N/A

Pressure: 30.07 "Hg

Humidity: 82%

Dew point: 41 °F

Location of Yuzhno-SakhalinskLocation

Historic Weather in Yuzhno-Sakhalinsk — Graph

°F

Yuzhno-Sakhalinsk temperature yesterday

Maximum temperature yesterday: 61 °F (at 1:30 PM)
Minimum temperature yesterday: 41 °F (at 3:00 AM)
Average temperature yesterday: 50 °F

Past Weeks' High & Low Weather Summary

 TemperatureHumidityPressure
High61 °F (Apr 27, 1:30 PM)100% (Apr 15, 3:00 AM)30.33 "Hg (Apr 15, 3:00 AM)
Low23 °F (Apr 13, 7:00 AM)33% (Apr 25, 2:30 PM)29.42 "Hg (Apr 21, 6:00 AM)
Average40 °F76%29.83 "Hg
* Reported Apr 13 7:00 AM — Apr 28 7:30 AM, Yuzhno-Sakhalinsk, Weather by CustomWeather, © 2015

Note: Actual official high and low records may vary slightly from our data, if they occured in-between our weather recording intervals... More about our weather records

Advertising

Yuzhno-Sakhalinsk weather history for previous 24 hours

 ConditionsComfort  
Time TempWeatherWind HumidityBarometerVisibility
7:30 AM
Tue, Apr 28
43 °FClear.No wind87%30.04 "HgN/A
7:00 AM43 °FClear.1 mph87%30.04 "HgN/A
6:30 AM41 °FClear.1 mph87%30.04 "HgN/A
6:00 AM39 °FClear.No wind93%30.04 "HgN/A
5:00 AM41 °FClear.1 mph87%30.01 "HgN/A
4:00 AM41 °FPassing clouds.No wind87%30.01 "HgN/A
3:00 AM41 °FSprinkles. Passing clouds.6 mph93%29.98 "HgN/A
2:00 AM41 °FClear.3 mph87%29.95 "HgN/A
1:00 AM43 °FClear.No wind81%29.95 "HgN/A
12:00 AM45 °FClear.1 mph76%29.95 "HgN/A
11:00 PM
Mon, Apr 27
45 °FClear.1 mph76%29.95 "HgN/A
10:00 PM45 °FClear.1 mph76%29.92 "HgN/A
9:30 PM45 °FClear.No wind76%29.92 "HgN/A
9:00 PM45 °FClear.1 mph76%29.92 "HgN/A
8:30 PM46 °FClear.1 mph71%29.89 "HgN/A
8:00 PM46 °FClear.No wind71%29.89 "HgN/A
7:30 PM48 °FClear.1 mph66%29.86 "HgN/A
7:00 PM50 °FClear.8 mph62%29.86 "HgN/A
6:30 PM52 °FClear.8 mph58%29.86 "HgN/A
6:00 PM52 °FClear.8 mph58%29.83 "HgN/A
5:30 PM52 °FClear.8 mph58%29.83 "HgN/A
5:00 PM54 °FClear.8 mph54%29.80 "HgN/A
4:30 PM55 °FClear.10 mph55%29.77 "HgN/A
4:00 PM61 °FClear.6 mph36%29.77 "HgN/A
3:30 PM61 °FClear.6 mph36%29.77 "HgN/A
3:00 PM61 °FClear.8 mph36%29.74 "HgN/A
2:30 PM59 °FClear.8 mph42%29.74 "HgN/A
2:00 PM59 °FClear.8 mph45%29.71 "HgN/A
1:30 PM61 °FClear.13 mph42%29.71 "HgN/A
1:00 PM59 °FClear.10 mph45%29.71 "HgN/A
12:30 PM59 °FClear.8 mph51%29.71 "HgN/A
12:00 PM57 °FClear.8 mph51%29.71 "HgN/A
11:30 AM57 °FPassing clouds.13 mph51%29.68 "HgN/A
11:00 AM55 °FPassing clouds.10 mph59%29.68 "HgN/A
10:30 AM54 °FPassing clouds.10 mph63%29.65 "HgN/A
10:00 AM52 °FScattered clouds.13 mph72%29.65 "HgN/A
9:30 AM52 °FPartly sunny.8 mph72%29.65 "HgN/A
9:00 AM50 °FPartly sunny.6 mph76%29.65 "HgN/A
8:30 AM48 °FPartly sunny.3 mph82%29.65 "HgN/A
8:00 AM46 °FPartly sunny.6 mph87%29.62 "Hg5 mi
Weather by CustomWeather, © 2015

See weather overviewHow to use our weather pages